EZY15A EGKK-GMMN

Flight info

Callsign EZY15A
Flight time 2h 57m
Altitude 35000
Route IMVUR N63 SAM M195 LORKU DCT POZOF/N0457F370 DCT BALDA DCT BATAX DCT PINOX DCT TOFEF DCT ALAGU DCT UBESO DCT AMSEL UR722 LAKAM
Aircraft A320/M-SDE3FGHIRWY/LB1

Departure

Time 2026-05-04 18:01
Airport London Gatwick Airport (EGKK)

Arrival

Time 2026-05-04 20:58
Airport Mohammed V International Airport (GMMN)
Time Latitude Longitude Altitude Speed Heading
2026-05-04 17:10 51.15593 -0.17626 205 ft 0 kts 345°
2026-05-04 17:36 51.15580 -0.17621 214 ft 3 kts 350°
2026-05-04 17:37 51.15563 -0.17616 210 ft 3 kts 346°
2026-05-04 17:37 51.15546 -0.17605 213 ft 3 kts 315°
2026-05-04 17:37 51.15536 -0.17581 215 ft 3 kts 281°
2026-05-04 17:37 51.15534 -0.17550 211 ft 3 kts 261°
2026-05-04 17:38 51.15536 -0.17535 209 ft 1 kts 257°
2026-05-04 17:38 51.15536 -0.17533 209 ft 0 kts 257°
2026-05-04 17:41 51.15523 -0.17629 205 ft 12 kts 257°
2026-05-04 17:41 51.15506 -0.17748 205 ft 10 kts 258°
2026-05-04 17:42 51.15492 -0.17852 205 ft 9 kts 258°
2026-05-04 17:42 51.15480 -0.17943 208 ft 8 kts 258°
2026-05-04 17:42 51.15470 -0.18021 208 ft 7 kts 258°
2026-05-04 17:42 51.15461 -0.18087 211 ft 5 kts 257°
2026-05-04 17:43 51.15453 -0.18141 205 ft 6 kts 256°
2026-05-04 17:43 51.15438 -0.18232 205 ft 9 kts 256°
2026-05-04 17:43 51.15395 -0.18278 210 ft 7 kts 181°
2026-05-04 17:43 51.15349 -0.18266 209 ft 6 kts 168°
2026-05-04 17:44 51.15291 -0.18247 208 ft 10 kts 168°
2026-05-04 17:44 51.15239 -0.18228 214 ft 0 kts 165°
2026-05-04 17:44 51.15206 -0.18241 207 ft 12 kts 210°
2026-05-04 17:45 51.15176 -0.18412 205 ft 18 kts 259°
2026-05-04 17:45 51.15151 -0.18593 206 ft 16 kts 257°
2026-05-04 17:45 51.15129 -0.18756 213 ft 14 kts 259°
2026-05-04 17:45 51.15102 -0.18932 205 ft 17 kts 257°
2026-05-04 17:46 51.15078 -0.19103 207 ft 15 kts 257°
2026-05-04 17:46 51.15052 -0.19249 208 ft 13 kts 232°
2026-05-04 17:46 51.14979 -0.19278 211 ft 11 kts 204°
2026-05-04 17:46 51.14945 -0.19414 207 ft 15 kts 258°
2026-05-04 17:47 51.14917 -0.19605 207 ft 20 kts 256°
2026-05-04 17:47 51.14891 -0.19815 210 ft 19 kts 259°
2026-05-04 17:47 51.14865 -0.20016 205 ft 18 kts 257°
2026-05-04 17:47 51.14837 -0.20203 208 ft 17 kts 257°
2026-05-04 17:48 51.14810 -0.20389 211 ft 20 kts 257°
2026-05-04 17:48 51.14777 -0.20641 204 ft 25 kts 259°
2026-05-04 17:48 51.14739 -0.20915 212 ft 26 kts 257°
2026-05-04 17:48 51.14713 -0.21100 209 ft 0 kts 257°
2026-05-04 17:50 51.14706 -0.21143 209 ft 10 kts 256°
2026-05-04 17:50 51.14697 -0.21203 215 ft 0 kts 257°
2026-05-04 17:57 51.14696 -0.21213 212 ft 6 kts 257°
2026-05-04 17:57 51.14676 -0.21313 207 ft 8 kts 237°
2026-05-04 17:57 51.14631 -0.21332 205 ft 2 kts 174°
2026-05-04 17:58 51.14630 -0.21332 205 ft 2 kts 173°
2026-05-04 17:58 51.14573 -0.21301 207 ft 10 kts 154°
2026-05-04 17:58 51.14528 -0.21235 213 ft 8 kts 122°
2026-05-04 17:58 51.14522 -0.21212 207 ft 0 kts 108°
2026-05-04 17:59 51.14521 -0.21209 207 ft 2 kts 106°
2026-05-04 17:59 51.14522 -0.21164 206 ft 3 kts 82°
2026-05-04 17:59 51.14523 -0.21154 206 ft 0 kts 78°
2026-05-04 18:00 51.14552 -0.20955 208 ft 52 kts 77°
2026-05-04 18:00 51.14678 -0.20038 208 ft 115 kts 78°
2026-05-04 18:01 51.14893 -0.18501 211 ft 164 kts 78°
2026-05-04 18:01 51.15126 -0.16677 697 ft 168 kts 78°
2026-05-04 18:01 51.15360 -0.14834 1385 ft 170 kts 78°
2026-05-04 18:02 51.15943 -0.10885 2146 ft 207 kts 76°
2026-05-04 18:02 51.16269 -0.08551 2688 ft 221 kts 76°
2026-05-04 18:02 51.16816 -0.06278 2951 ft 222 kts 49°
2026-05-04 18:02 51.18099 -0.05026 3007 ft 221 kts
2026-05-04 18:03 51.19630 -0.05242 3005 ft 224 kts 349°
2026-05-04 18:03 51.21134 -0.05870 3008 ft 225 kts 336°
2026-05-04 18:03 51.22319 -0.07483 3010 ft 229 kts 302°
2026-05-04 18:03 51.22740 -0.10074 3007 ft 258 kts 268°
2026-05-04 18:04 51.22591 -0.11980 3015 ft 265 kts 262°
2026-05-04 18:04 51.22270 -0.14878 3001 ft 266 kts 260°
2026-05-04 18:04 51.21560 -0.20686 3014 ft 267 kts 260°
2026-05-04 18:05 51.21207 -0.23595 3006 ft 267 kts 260°
2026-05-04 18:05 51.20859 -0.26502 3005 ft 267 kts 261°
2026-05-04 18:05 51.20514 -0.29408 3002 ft 267 kts 261°
2026-05-04 18:05 51.20172 -0.32318 3015 ft 267 kts 261°
2026-05-04 18:06 51.19456 -0.38217 3679 ft 277 kts 259°
2026-05-04 18:06 51.19068 -0.41203 3934 ft 272 kts 259°
2026-05-04 18:06 51.18676 -0.44139 4005 ft 270 kts 259°
2026-05-04 18:07 51.18285 -0.47060 4017 ft 269 kts 259°
2026-05-04 18:07 51.17897 -0.49978 4018 ft 269 kts 259°
2026-05-04 18:07 51.17499 -0.52893 4033 ft 269 kts 255°
2026-05-04 18:07 51.16825 -0.55687 4067 ft 273 kts 247°
2026-05-04 18:08 51.16071 -0.58505 4934 ft 274 kts 248°
2026-05-04 18:08 51.15324 -0.61298 5917 ft 275 kts 247°
2026-05-04 18:08 51.14574 -0.64105 6824 ft 276 kts 247°
2026-05-04 18:08 51.13821 -0.66933 7679 ft 279 kts 246°
2026-05-04 18:09 51.12291 -0.72666 9371 ft 284 kts 246°
2026-05-04 18:09 51.10700 -0.78598 10531 ft 308 kts 246°
2026-05-04 18:10 51.09822 -0.81850 10726 ft 332 kts 246°
2026-05-04 18:10 51.08893 -0.85302 11131 ft 345 kts 246°
2026-05-04 18:10 51.07954 -0.88798 11772 ft 351 kts 246°
2026-05-04 18:10 51.06977 -0.92431 12474 ft 355 kts 246°
2026-05-04 18:11 51.06012 -0.96021 13174 ft 359 kts 246°
2026-05-04 18:11 51.05026 -0.99677 13879 ft 362 kts 246°
2026-05-04 18:11 51.04027 -1.03368 14497 ft 365 kts 246°
2026-05-04 18:11 51.03016 -1.07095 15093 ft 369 kts 246°
2026-05-04 18:12 51.01995 -1.10843 15708 ft 372 kts 246°
2026-05-04 18:12 51.00961 -1.14633 16310 ft 375 kts 245°
2026-05-04 18:12 50.99919 -1.18453 16907 ft 379 kts 246°
2026-05-04 18:12 50.98862 -1.22312 17516 ft 382 kts 245°
2026-05-04 18:13 50.97798 -1.26196 18118 ft 386 kts 246°
2026-05-04 18:13 50.96667 -1.30074 18655 ft 389 kts 240°
2026-05-04 18:13 50.93254 -1.36698 19753 ft 391 kts 219°
2026-05-04 18:14 50.91034 -1.39200 20305 ft 393 kts 212°
2026-05-04 18:14 50.88742 -1.41575 20865 ft 395 kts 212°
2026-05-04 18:14 50.86439 -1.43963 21439 ft 396 kts 212°
2026-05-04 18:15 50.81801 -1.48774 22465 ft 401 kts 212°
2026-05-04 18:15 50.77118 -1.53629 23458 ft 405 kts 212°
2026-05-04 18:15 50.74757 -1.56069 23879 ft 406 kts 212°
2026-05-04 18:16 50.72388 -1.58514 24280 ft 408 kts 212°
2026-05-04 18:16 50.70009 -1.60972 24665 ft 409 kts 212°
2026-05-04 18:16 50.67623 -1.63432 25057 ft 410 kts 211°
2026-05-04 18:17 50.62829 -1.68360 25810 ft 413 kts 211°
2026-05-04 18:17 50.60667 -1.70581 26094 ft 416 kts 211°
2026-05-04 18:17 50.56096 -1.75270 26737 ft 419 kts 211°
2026-05-04 18:18 50.53651 -1.77772 27073 ft 420 kts 210°
2026-05-04 18:18 50.51194 -1.80278 27420 ft 422 kts 210°
2026-05-04 18:18 50.48727 -1.82793 27750 ft 423 kts 210°
2026-05-04 18:18 50.46252 -1.85312 28097 ft 424 kts 210°
2026-05-04 18:19 50.41310 -1.90346 28810 ft 424 kts 210°
2026-05-04 18:19 50.38829 -1.92869 29082 ft 425 kts 210°
2026-05-04 18:19 50.36340 -1.95396 29343 ft 427 kts 210°
2026-05-04 18:20 50.33843 -1.97926 29607 ft 428 kts 210°
2026-05-04 18:20 50.31337 -2.00458 29861 ft 429 kts 210°
2026-05-04 18:20 50.28831 -2.02986 30186 ft 428 kts 210°
2026-05-04 18:20 50.26330 -2.05508 30467 ft 428 kts 210°
2026-05-04 18:21 50.23830 -2.08029 30726 ft 428 kts 210°
2026-05-04 18:21 50.21314 -2.10523 30963 ft 428 kts 209°
2026-05-04 18:21 50.18790 -2.12980 31200 ft 429 kts 209°
2026-05-04 18:21 50.16247 -2.15433 31449 ft 429 kts 209°
2026-05-04 18:22 50.13701 -2.17884 31684 ft 430 kts 209°
2026-05-04 18:22 50.11155 -2.20336 31927 ft 431 kts 209°
2026-05-04 18:22 50.08608 -2.22796 32174 ft 431 kts 209°
2026-05-04 18:22 50.06059 -2.25266 32419 ft 432 kts 210°
2026-05-04 18:23 50.03505 -2.27743 32665 ft 432 kts 210°
2026-05-04 18:23 50.00948 -2.30220 32889 ft 434 kts 210°
2026-05-04 18:23 49.98376 -2.32706 33099 ft 435 kts 210°
2026-05-04 18:23 49.95798 -2.35194 33333 ft 436 kts 210°
2026-05-04 18:24 49.93175 -2.37544 33580 ft 435 kts 204°
2026-05-04 18:24 49.90421 -2.39493 33867 ft 435 kts 203°
2026-05-04 18:24 49.87660 -2.41425 34102 ft 435 kts 203°
2026-05-04 18:24 49.84896 -2.43356 34315 ft 436 kts 203°
2026-05-04 18:25 49.82132 -2.45287 34524 ft 436 kts 203°
2026-05-04 18:25 49.79365 -2.47219 34728 ft 436 kts 203°
2026-05-04 18:25 49.76629 -2.49124 34925 ft 437 kts 203°
2026-05-04 18:25 49.73850 -2.51049 35004 ft 438 kts 203°
2026-05-04 18:26 49.68285 -2.54904 35016 ft 437 kts 203°
2026-05-04 18:26 49.62747 -2.58741 35002 ft 436 kts 203°
2026-05-04 18:27 49.57211 -2.62553 35002 ft 436 kts 203°
2026-05-04 18:27 49.51673 -2.66368 35002 ft 436 kts 203°
2026-05-04 18:28 49.46137 -2.70183 35009 ft 436 kts 203°
2026-05-04 18:28 49.40587 -2.73993 34998 ft 437 kts 203°
2026-05-04 18:29 49.35026 -2.77795 34995 ft 438 kts 203°
2026-05-04 18:29 49.29457 -2.81597 34994 ft 438 kts 203°
2026-05-04 18:30 49.21096 -2.87277 35007 ft 438 kts 202°
2026-05-04 18:31 49.15517 -2.91042 35015 ft 438 kts 202°
2026-05-04 18:31 49.09982 -2.94791 35016 ft 438 kts 202°
2026-05-04 18:32 49.04405 -2.98557 35019 ft 438 kts 202°
2026-05-04 18:32 48.98833 -3.02308 35023 ft 438 kts 202°
2026-05-04 18:33 48.93261 -3.06052 35019 ft 437 kts 202°
2026-05-04 18:33 48.87679 -3.09783 35013 ft 439 kts 202°
2026-05-04 18:34 48.82083 -3.13515 35003 ft 440 kts 202°
2026-05-04 18:34 48.76477 -3.17258 35004 ft 440 kts 202°
2026-05-04 18:35 48.70861 -3.20987 35006 ft 441 kts 202°
2026-05-04 18:35 48.65272 -3.24689 35008 ft 441 kts 202°
2026-05-04 18:36 48.59646 -3.28411 35017 ft 441 kts 202°
2026-05-04 18:36 48.54018 -3.32121 35018 ft 441 kts 202°
2026-05-04 18:37 48.48390 -3.35826 35011 ft 441 kts 202°
2026-05-04 18:37 48.42764 -3.39527 35007 ft 441 kts 202°
2026-05-04 18:38 48.37137 -3.43219 35009 ft 441 kts 202°
2026-05-04 18:38 48.31504 -3.46901 34998 ft 442 kts 202°
2026-05-04 18:39 48.25852 -3.50576 34990 ft 443 kts 202°
2026-05-04 18:39 48.20195 -3.54258 34980 ft 444 kts 202°
2026-05-04 18:40 48.14533 -3.57939 34987 ft 444 kts 202°
2026-05-04 18:40 48.08867 -3.61596 34992 ft 443 kts 202°
2026-05-04 18:41 48.03238 -3.65221 34996 ft 443 kts 202°
2026-05-04 18:41 47.97580 -3.68875 34992 ft 443 kts 202°
2026-05-04 18:42 47.91927 -3.72509 34996 ft 442 kts 202°
2026-05-04 18:42 47.86242 -3.76148 35006 ft 441 kts 202°
2026-05-04 18:43 47.80639 -3.79734 35014 ft 441 kts 202°
2026-05-04 18:43 47.74998 -3.83339 35003 ft 441 kts 202°
2026-05-04 18:44 47.69358 -3.86925 35012 ft 441 kts 202°
2026-05-04 18:44 47.63725 -3.90506 35008 ft 440 kts 202°
2026-05-04 18:45 47.58088 -3.94075 35005 ft 440 kts 201°
2026-05-04 18:45 47.52458 -3.97626 35005 ft 440 kts 201°
2026-05-04 18:46 47.46835 -4.01171 35012 ft 440 kts 201°
2026-05-04 18:46 47.41203 -4.04711 35013 ft 439 kts 201°
2026-05-04 18:47 47.35615 -4.08211 35010 ft 439 kts 201°
2026-05-04 18:47 47.29989 -4.11735 35002 ft 439 kts 201°
2026-05-04 18:48 47.24360 -4.15253 35013 ft 440 kts 201°
2026-05-04 18:48 47.18715 -4.18776 35001 ft 441 kts 201°
2026-05-04 18:49 47.13065 -4.22300 34996 ft 442 kts 201°
2026-05-04 18:49 47.07400 -4.25806 35001 ft 442 kts 201°
2026-05-04 18:50 47.01702 -4.29155 35006 ft 441 kts 199°
2026-05-04 18:50 46.95938 -4.32264 35008 ft 441 kts 199°
2026-05-04 18:51 46.90173 -4.35343 35011 ft 441 kts 199°
2026-05-04 18:51 46.85392 -4.37936 35013 ft 441 kts 199°
2026-05-04 18:52 46.79647 -4.41076 35014 ft 441 kts 199°
2026-05-04 18:52 46.72972 -4.44725 35013 ft 441 kts 199°
2026-05-04 18:53 46.68161 -4.47334 35016 ft 441 kts 199°
2026-05-04 18:53 46.62417 -4.50444 35017 ft 441 kts 199°
2026-05-04 18:54 46.56671 -4.53561 35016 ft 441 kts 199°
2026-05-04 18:54 46.50925 -4.56662 35014 ft 440 kts 199°
2026-05-04 18:55 46.45180 -4.59752 35021 ft 440 kts 199°
2026-05-04 18:55 46.36598 -4.64353 35016 ft 440 kts 199°
2026-05-04 18:56 46.30854 -4.67434 35023 ft 440 kts 199°
2026-05-04 18:56 46.25106 -4.70495 35023 ft 440 kts 199°
2026-05-04 18:57 46.19371 -4.73553 35027 ft 439 kts 199°
2026-05-04 18:57 46.13638 -4.76599 35025 ft 439 kts 199°
2026-05-04 18:58 46.07902 -4.79625 35032 ft 439 kts 199°
2026-05-04 18:58 46.02167 -4.82655 35027 ft 439 kts 200°
2026-05-04 18:59 45.96435 -4.85692 35024 ft 439 kts 200°
2026-05-04 18:59 45.90701 -4.88725 35022 ft 439 kts 200°
2026-05-04 19:00 45.84965 -4.91737 35020 ft 439 kts 200°
2026-05-04 19:00 45.79228 -4.94742 35021 ft 438 kts 200°
2026-05-04 19:01 45.73498 -4.97747 35024 ft 438 kts 200°
2026-05-04 19:01 45.67772 -5.00741 35021 ft 438 kts 200°
2026-05-04 19:02 45.62084 -5.03701 35020 ft 438 kts 200°
2026-05-04 19:02 45.56361 -5.06672 35024 ft 437 kts 200°
2026-05-04 19:03 45.50637 -5.09640 35025 ft 438 kts 200°
2026-05-04 19:03 45.44902 -5.12607 35020 ft 439 kts 200°
2026-05-04 19:04 45.39163 -5.15564 35021 ft 439 kts 200°
2026-05-04 19:04 45.33426 -5.18529 35022 ft 438 kts 200°
2026-05-04 19:05 45.27694 -5.21481 35021 ft 438 kts 200°
2026-05-04 19:05 45.21954 -5.24423 35021 ft 438 kts 200°
2026-05-04 19:06 45.16216 -5.27352 35022 ft 438 kts 200°
2026-05-04 19:06 45.10481 -5.30279 35023 ft 438 kts 200°
2026-05-04 19:07 45.04744 -5.33209 35019 ft 438 kts 200°
2026-05-04 19:07 44.99012 -5.36133 35032 ft 438 kts 200°
2026-05-04 19:08 44.93270 -5.39044 35016 ft 439 kts 200°
2026-05-04 19:08 44.87515 -5.41946 35012 ft 440 kts 200°
2026-05-04 19:09 44.81794 -5.44839 35006 ft 440 kts 200°
2026-05-04 19:09 44.76031 -5.47740 35014 ft 440 kts 200°
2026-05-04 19:10 44.70261 -5.50631 35020 ft 440 kts 200°
2026-05-04 19:10 44.64490 -5.53529 35022 ft 440 kts 200°
2026-05-04 19:11 44.58700 -5.56326 35023 ft 441 kts 198°
2026-05-04 19:11 44.52791 -5.58639 35023 ft 441 kts 195°
2026-05-04 19:12 44.43886 -5.61866 35018 ft 441 kts 196°
2026-05-04 19:13 44.37966 -5.64109 35023 ft 441 kts 196°
2026-05-04 19:13 44.32055 -5.66394 35025 ft 441 kts 196°
2026-05-04 19:14 44.26150 -5.68663 35023 ft 440 kts 197°
2026-05-04 19:14 44.20244 -5.70910 35026 ft 440 kts 197°
2026-05-04 19:15 44.14330 -5.73151 35021 ft 441 kts 197°
2026-05-04 19:15 44.08409 -5.75391 35018 ft 441 kts 197°
2026-05-04 19:16 44.02481 -5.77640 35013 ft 442 kts 197°
2026-05-04 19:16 43.96550 -5.79892 35022 ft 442 kts 197°
2026-05-04 19:17 43.90646 -5.82119 35031 ft 442 kts 197°
2026-05-04 19:17 43.84707 -5.84350 35022 ft 443 kts 197°
2026-05-04 19:18 43.78721 -5.86601 35032 ft 442 kts 197°
2026-05-04 19:18 43.72818 -5.88811 35042 ft 443 kts 197°
2026-05-04 19:19 43.66868 -5.91034 35040 ft 443 kts 197°
2026-05-04 19:19 43.60915 -5.93249 35044 ft 443 kts 197°
2026-05-04 19:20 43.54965 -5.95472 35052 ft 443 kts 197°
2026-05-04 19:20 43.49009 -5.97692 35057 ft 444 kts 197°
2026-05-04 19:21 43.43047 -5.99897 35066 ft 444 kts 198°
2026-05-04 19:21 43.37089 -6.02099 35073 ft 443 kts 198°
2026-05-04 19:22 43.31138 -6.04295 35078 ft 443 kts 198°
2026-05-04 19:22 43.25193 -6.06488 35074 ft 442 kts 198°
2026-05-04 19:23 43.19261 -6.08672 35079 ft 441 kts 198°
2026-05-04 19:23 43.13337 -6.10851 35071 ft 441 kts 198°
2026-05-04 19:24 43.07407 -6.13030 35061 ft 441 kts 198°
2026-05-04 19:24 43.01475 -6.15204 35048 ft 441 kts 198°
2026-05-04 19:25 42.95537 -6.17363 35054 ft 442 kts 198°
2026-05-04 19:25 42.89602 -6.19521 35056 ft 442 kts 198°
2026-05-04 19:26 42.83665 -6.21686 35041 ft 441 kts 198°
2026-05-04 19:26 42.77771 -6.23828 35053 ft 441 kts 198°
2026-05-04 19:27 42.71841 -6.25972 35066 ft 441 kts 198°
2026-05-04 19:27 42.65917 -6.28115 35062 ft 440 kts 198°
2026-05-04 19:28 42.59994 -6.30257 35063 ft 440 kts 198°
2026-05-04 19:28 42.54074 -6.32389 35061 ft 440 kts 198°
2026-05-04 19:29 42.48157 -6.34517 35059 ft 440 kts 198°
2026-05-04 19:29 42.42237 -6.36633 35038 ft 440 kts 199°
2026-05-04 19:30 42.36328 -6.38744 35044 ft 439 kts 199°
2026-05-04 19:30 42.30417 -6.40853 35046 ft 439 kts 199°
2026-05-04 19:31 42.24511 -6.42955 35047 ft 439 kts 199°
2026-05-04 19:31 42.18611 -6.45052 35032 ft 438 kts 199°
2026-05-04 19:32 42.12756 -6.47133 35028 ft 438 kts 199°
2026-05-04 19:32 42.06861 -6.49222 35024 ft 438 kts 199°
2026-05-04 19:33 42.00955 -6.51310 34998 ft 439 kts 200°
2026-05-04 19:33 41.95054 -6.53392 35008 ft 438 kts 199°
2026-05-04 19:34 41.89153 -6.55478 35023 ft 438 kts 200°
2026-05-04 19:34 41.83254 -6.57557 35031 ft 438 kts 199°
2026-05-04 19:35 41.77353 -6.59625 35011 ft 438 kts 200°
2026-05-04 19:35 41.71458 -6.61683 35035 ft 437 kts 200°
2026-05-04 19:36 41.65572 -6.63753 35051 ft 437 kts 200°
2026-05-04 19:36 41.59694 -6.65836 35051 ft 437 kts 200°
2026-05-04 19:37 41.53821 -6.67904 35041 ft 436 kts 200°
2026-05-04 19:37 41.47949 -6.69963 35050 ft 436 kts 200°
2026-05-04 19:38 41.42079 -6.72018 35056 ft 436 kts 200°
2026-05-04 19:38 41.36214 -6.74075 35025 ft 436 kts 201°
2026-05-04 19:39 41.30356 -6.76124 35045 ft 435 kts 201°
2026-05-04 19:39 41.24495 -6.78161 35053 ft 435 kts 201°
2026-05-04 19:40 41.19631 -6.79848 35057 ft 435 kts 201°
2026-05-04 19:40 41.13781 -6.81880 35033 ft 435 kts 201°
2026-05-04 19:41 41.06988 -6.84235 35052 ft 434 kts 201°
2026-05-04 19:41 41.01142 -6.86263 35051 ft 434 kts 201°
2026-05-04 19:42 40.96241 -6.87961 35058 ft 435 kts 202°
2026-05-04 19:42 40.90380 -6.89974 35035 ft 435 kts 202°
2026-05-04 19:43 40.84526 -6.91984 35063 ft 434 kts 202°
2026-05-04 19:43 40.78685 -6.93992 35073 ft 434 kts 202°
2026-05-04 19:44 40.72849 -6.96001 35076 ft 433 kts 202°
2026-05-04 19:44 40.67063 -6.97982 35054 ft 432 kts 202°
2026-05-04 19:45 40.61250 -6.99966 35074 ft 431 kts 202°
2026-05-04 19:45 40.55450 -7.01950 35078 ft 430 kts 202°
2026-05-04 19:46 40.49664 -7.03919 35072 ft 430 kts 202°
2026-05-04 19:46 40.43878 -7.05886 35068 ft 429 kts 202°
2026-05-04 19:47 40.38099 -7.07845 35060 ft 429 kts 202°
2026-05-04 19:47 40.32319 -7.09799 35053 ft 429 kts 202°
2026-05-04 19:48 40.26538 -7.11757 35055 ft 429 kts 202°
2026-05-04 19:48 40.20769 -7.13718 35035 ft 428 kts 203°
2026-05-04 19:49 40.15015 -7.15685 35041 ft 427 kts 203°
2026-05-04 19:49 40.09267 -7.17652 35044 ft 427 kts 203°
2026-05-04 19:50 40.03513 -7.19599 35057 ft 427 kts 203°
2026-05-04 19:50 39.97799 -7.21517 35030 ft 427 kts 203°
2026-05-04 19:51 39.92051 -7.23466 35023 ft 427 kts 204°
2026-05-04 19:51 39.86296 -7.25418 35038 ft 427 kts 204°
2026-05-04 19:52 39.80538 -7.27361 35038 ft 428 kts 204°
2026-05-04 19:52 39.74776 -7.29294 35041 ft 428 kts 204°
2026-05-04 19:53 39.69020 -7.31221 35057 ft 427 kts 204°
2026-05-04 19:53 39.63264 -7.33151 35059 ft 427 kts 204°
2026-05-04 19:54 39.57520 -7.35078 35058 ft 427 kts 204°
2026-05-04 19:54 39.51723 -7.36843 35045 ft 434 kts 197°
2026-05-04 19:55 39.45724 -7.37892 35054 ft 435 kts 197°
2026-05-04 19:55 39.39723 -7.38938 35057 ft 435 kts 197°
2026-05-04 19:56 39.33727 -7.39983 35017 ft 435 kts 197°
2026-05-04 19:56 39.27719 -7.41031 35053 ft 436 kts 197°
2026-05-04 19:57 39.21746 -7.42077 35063 ft 436 kts 197°
2026-05-04 19:57 39.15738 -7.43122 35067 ft 436 kts 197°
2026-05-04 19:58 39.09734 -7.44168 35038 ft 435 kts 197°
2026-05-04 19:58 39.03729 -7.45209 35054 ft 435 kts 197°
2026-05-04 19:59 38.97717 -7.46243 35057 ft 436 kts 197°
2026-05-04 19:59 38.91709 -7.47286 35066 ft 436 kts 197°
2026-05-04 20:00 38.85702 -7.48327 35054 ft 436 kts 197°
2026-05-04 20:00 38.79681 -7.49362 35068 ft 437 kts 197°
2026-05-04 20:01 38.73656 -7.50399 35078 ft 437 kts 197°
2026-05-04 20:01 38.67632 -7.51440 35086 ft 437 kts 197°
2026-05-04 20:02 38.61607 -7.52468 35065 ft 437 kts 197°
2026-05-04 20:02 38.55583 -7.53492 35074 ft 437 kts 197°
2026-05-04 20:03 38.49596 -7.54518 35087 ft 437 kts 197°
2026-05-04 20:03 38.43568 -7.55545 35086 ft 437 kts 197°
2026-05-04 20:04 38.37553 -7.56574 35049 ft 436 kts 196°
2026-05-04 20:04 38.31538 -7.57597 35064 ft 436 kts 196°
2026-05-04 20:05 38.25525 -7.58617 35076 ft 436 kts 196°
2026-05-04 20:05 38.19511 -7.59632 35089 ft 436 kts 196°
2026-05-04 20:06 38.13486 -7.60650 35099 ft 437 kts 196°
2026-05-04 20:06 38.07463 -7.61661 35096 ft 437 kts 195°
2026-05-04 20:07 38.01422 -7.62597 35094 ft 438 kts 195°
2026-05-04 20:07 37.95373 -7.63485 35097 ft 437 kts 195°
2026-05-04 20:08 37.89338 -7.64371 35068 ft 436 kts 194°
2026-05-04 20:08 37.83312 -7.65280 35081 ft 435 kts 194°
2026-05-04 20:09 37.77295 -7.66197 35092 ft 435 kts 194°
2026-05-04 20:09 37.71282 -7.67097 35087 ft 435 kts 194°
2026-05-04 20:10 37.65263 -7.67989 35080 ft 435 kts 194°
2026-05-04 20:10 37.59247 -7.68889 35086 ft 435 kts 194°
2026-05-04 20:11 37.53271 -7.69781 35103 ft 435 kts 194°
2026-05-04 20:11 37.47257 -7.70683 35104 ft 435 kts 194°
2026-05-04 20:12 37.41237 -7.71582 35089 ft 435 kts 194°
2026-05-04 20:12 37.35220 -7.72471 35104 ft 435 kts 194°
2026-05-04 20:13 37.29204 -7.73364 35105 ft 435 kts 194°
2026-05-04 20:13 37.23192 -7.74250 35104 ft 435 kts 194°
2026-05-04 20:14 37.17183 -7.75142 35083 ft 434 kts 194°
2026-05-04 20:14 37.11182 -7.76028 35091 ft 434 kts 194°
2026-05-04 20:15 37.05187 -7.76908 35095 ft 434 kts 194°
2026-05-04 20:15 36.99196 -7.77793 35094 ft 433 kts 194°
2026-05-04 20:16 36.93199 -7.78676 35064 ft 434 kts 195°
2026-05-04 20:16 36.87242 -7.79548 35074 ft 434 kts 195°
2026-05-04 20:17 36.81250 -7.80428 35079 ft 434 kts 195°
2026-05-04 20:17 36.75252 -7.81304 35088 ft 434 kts 195°
2026-05-04 20:18 36.69224 -7.82006 35075 ft 437 kts 193°
2026-05-04 20:18 36.63147 -7.82481 35084 ft 438 kts 192°
2026-05-04 20:19 36.57072 -7.82951 35092 ft 437 kts 192°
2026-05-04 20:19 36.51001 -7.83479 35099 ft 437 kts 193°
2026-05-04 20:20 36.44945 -7.84034 35071 ft 437 kts 193°
2026-05-04 20:20 36.38882 -7.84591 35084 ft 437 kts 193°
2026-05-04 20:21 36.32822 -7.85131 35097 ft 437 kts 192°
2026-05-04 20:21 36.23728 -7.85927 35083 ft 437 kts 192°
2026-05-04 20:22 36.17670 -7.86455 35100 ft 436 kts 192°
2026-05-04 20:22 36.11628 -7.86994 35111 ft 435 kts 192°
2026-05-04 20:23 36.05589 -7.87526 35117 ft 435 kts 192°
2026-05-04 20:23 35.99562 -7.88067 35116 ft 434 kts 192°
2026-05-04 20:24 35.93471 -7.88047 35098 ft 443 kts 184°
2026-05-04 20:24 35.87328 -7.87485 35111 ft 442 kts 184°
2026-05-04 20:25 35.81235 -7.86913 35113 ft 442 kts 184°
2026-05-04 20:25 35.75063 -7.86341 35120 ft 442 kts 184°
2026-05-04 20:26 35.68931 -7.85795 35125 ft 442 kts 184°
2026-05-04 20:26 35.62840 -7.85271 35128 ft 442 kts 185°
2026-05-04 20:27 35.56706 -7.84741 35130 ft 442 kts 184°
2026-05-04 20:27 35.50572 -7.84187 35135 ft 442 kts 184°
2026-05-04 20:28 35.44441 -7.83637 35119 ft 442 kts 184°
2026-05-04 20:28 35.38316 -7.83085 35129 ft 441 kts 184°
2026-05-04 20:29 35.32194 -7.82570 35130 ft 441 kts 185°
2026-05-04 20:29 35.27113 -7.82150 35134 ft 440 kts 185°
2026-05-04 20:30 35.20998 -7.81638 35111 ft 440 kts 184°
2026-05-04 20:30 35.14895 -7.81119 35118 ft 440 kts 184°
2026-05-04 20:31 35.08790 -7.80603 35119 ft 440 kts 184°
2026-05-04 20:31 35.02689 -7.80079 35124 ft 440 kts 184°
2026-05-04 20:32 34.96586 -7.79551 35102 ft 440 kts 184°
2026-05-04 20:32 34.90485 -7.79033 35113 ft 439 kts 184°
2026-05-04 20:33 34.84386 -7.78523 35118 ft 439 kts 184°
2026-05-04 20:33 34.78288 -7.78020 35121 ft 439 kts 184°
2026-05-04 20:34 34.72194 -7.77522 35101 ft 438 kts 184°
2026-05-04 20:34 34.69151 -7.77296 34887 ft 438 kts 184°
2026-05-04 20:34 34.66110 -7.77088 34648 ft 438 kts 184°
2026-05-04 20:35 34.63069 -7.76887 34412 ft 438 kts 184°
2026-05-04 20:35 34.60025 -7.76688 34177 ft 438 kts 184°
2026-05-04 20:35 34.56975 -7.76485 33914 ft 439 kts 184°
2026-05-04 20:35 34.53920 -7.76276 33644 ft 440 kts 184°
2026-05-04 20:36 34.50899 -7.76066 33378 ft 441 kts 184°
2026-05-04 20:36 34.47828 -7.75850 33095 ft 442 kts 183°
2026-05-04 20:36 34.44750 -7.75632 32833 ft 443 kts 183°
2026-05-04 20:36 34.41628 -7.75411 32570 ft 444 kts 183°
2026-05-04 20:37 34.38575 -7.75197 32318 ft 446 kts 183°
2026-05-04 20:37 34.35480 -7.74983 32059 ft 447 kts 183°
2026-05-04 20:37 34.32370 -7.74766 31813 ft 448 kts 183°
2026-05-04 20:37 34.29256 -7.74551 31563 ft 449 kts 183°
2026-05-04 20:38 34.26133 -7.74337 31347 ft 450 kts 183°
2026-05-04 20:38 34.22996 -7.74123 30649 ft 452 kts 182°
2026-05-04 20:38 34.19863 -7.73906 29890 ft 450 kts 182°
2026-05-04 20:38 34.16750 -7.73678 29067 ft 447 kts 182°
2026-05-04 20:39 34.13655 -7.73411 28269 ft 444 kts 181°
2026-05-04 20:39 34.10590 -7.73119 27492 ft 441 kts 181°
2026-05-04 20:39 34.07539 -7.72814 26733 ft 439 kts 181°
2026-05-04 20:39 34.04504 -7.72510 25997 ft 436 kts 181°
2026-05-04 20:40 34.01489 -7.72218 25279 ft 434 kts 181°
2026-05-04 20:40 33.98487 -7.71937 24586 ft 431 kts 181°
2026-05-04 20:40 33.95503 -7.71664 23868 ft 429 kts 181°
2026-05-04 20:40 33.92535 -7.71394 23089 ft 427 kts 180°
2026-05-04 20:41 33.89579 -7.71127 22306 ft 425 kts 180°
2026-05-04 20:41 33.86633 -7.70862 21535 ft 424 kts 180°
2026-05-04 20:41 33.83698 -7.70594 20787 ft 422 kts 180°
2026-05-04 20:41 33.80775 -7.70324 20057 ft 421 kts 180°
2026-05-04 20:42 33.77862 -7.70051 19343 ft 419 kts 179°
2026-05-04 20:42 33.75010 -7.69781 18633 ft 403 kts 179°
2026-05-04 20:42 33.72304 -7.69528 17882 ft 389 kts 179°
2026-05-04 20:42 33.69647 -7.69284 17209 ft 377 kts 179°
2026-05-04 20:43 33.67030 -7.69050 16881 ft 377 kts 179°
2026-05-04 20:43 33.64421 -7.68821 16553 ft 375 kts 179°
2026-05-04 20:43 33.61828 -7.68592 16229 ft 373 kts 179°
2026-05-04 20:43 33.59245 -7.68360 15908 ft 371 kts 179°
2026-05-04 20:44 33.56673 -7.68124 15589 ft 370 kts 179°
2026-05-04 20:44 33.54109 -7.67889 15275 ft 369 kts 179°
2026-05-04 20:44 33.51559 -7.67775 14962 ft 365 kts 185°
2026-05-04 20:44 33.49038 -7.68017 14655 ft 363 kts 188°
2026-05-04 20:45 33.46530 -7.68277 14350 ft 361 kts 188°
2026-05-04 20:45 33.44029 -7.68537 14035 ft 360 kts 188°
2026-05-04 20:45 33.41541 -7.68796 13713 ft 358 kts 188°
2026-05-04 20:45 33.39067 -7.69056 13375 ft 356 kts 187°
2026-05-04 20:46 33.36607 -7.69314 13040 ft 354 kts 187°
2026-05-04 20:46 33.34163 -7.69570 12710 ft 352 kts 187°
2026-05-04 20:46 33.31727 -7.69823 12382 ft 350 kts 187°
2026-05-04 20:46 33.29311 -7.70071 12058 ft 348 kts 187°
2026-05-04 20:47 33.26936 -7.70313 11741 ft 346 kts 187°
2026-05-04 20:47 33.24511 -7.70561 11418 ft 344 kts 187°
2026-05-04 20:47 33.22209 -7.71055 11100 ft 339 kts 200°
2026-05-04 20:47 33.20063 -7.72162 10802 ft 335 kts 207°
2026-05-04 20:48 33.17903 -7.73194 10485 ft 332 kts 200°
2026-05-04 20:48 33.15668 -7.73913 10172 ft 325 kts 194°
2026-05-04 20:48 33.13487 -7.74302 9853 ft 319 kts 188°
2026-05-04 20:48 33.11293 -7.74409 9518 ft 313 kts 182°
2026-05-04 20:49 33.09144 -7.74234 9175 ft 304 kts 173°
2026-05-04 20:49 33.07238 -7.73306 8845 ft 296 kts 144°
2026-05-04 20:49 33.05987 -7.71393 8513 ft 296 kts 112°
2026-05-04 20:49 33.05705 -7.68984 8192 ft 296 kts 81°
2026-05-04 20:50 33.06411 -7.66715 7875 ft 293 kts 60°
2026-05-04 20:50 33.07294 -7.64549 7551 ft 284 kts 66°
2026-05-04 20:50 33.07984 -7.62407 7236 ft 270 kts 69°
2026-05-04 20:50 33.08584 -7.60346 6927 ft 256 kts 70°
2026-05-04 20:51 33.09154 -7.58383 6607 ft 245 kts 69°
2026-05-04 20:51 33.09715 -7.56504 6293 ft 236 kts 69°
2026-05-04 20:51 33.10320 -7.54725 5963 ft 228 kts 60°
2026-05-04 20:51 33.11291 -7.53234 5393 ft 229 kts 39°
2026-05-04 20:52 33.12608 -7.52251 5080 ft 218 kts 20°
2026-05-04 20:52 33.14018 -7.51843 4857 ft 199 kts
2026-05-04 20:52 33.15329 -7.51921 4651 ft 181 kts 348°
2026-05-04 20:52 33.16496 -7.52298 4402 ft 166 kts 344°
2026-05-04 20:53 33.17562 -7.52659 4193 ft 153 kts 344°
2026-05-04 20:53 33.18553 -7.52996 3995 ft 145 kts 345°
2026-05-04 20:53 33.19527 -7.53327 3817 ft 144 kts 346°
2026-05-04 20:53 33.20492 -7.53656 3626 ft 144 kts 346°
2026-05-04 20:54 33.21448 -7.53982 3440 ft 144 kts 347°
2026-05-04 20:54 33.22403 -7.54308 3252 ft 142 kts 346°
2026-05-04 20:54 33.23351 -7.54631 3063 ft 140 kts 347°
2026-05-04 20:54 33.24283 -7.54949 2873 ft 138 kts 347°
2026-05-04 20:55 33.25213 -7.55267 2685 ft 140 kts 347°
2026-05-04 20:55 33.26144 -7.55584 2497 ft 139 kts 347°
2026-05-04 20:55 33.27076 -7.55908 2323 ft 139 kts 347°
2026-05-04 20:55 33.27996 -7.56241 2156 ft 138 kts 348°
2026-05-04 20:56 33.28915 -7.56553 1981 ft 137 kts 348°
2026-05-04 20:56 33.29828 -7.56860 1793 ft 136 kts 348°
2026-05-04 20:56 33.30737 -7.57166 1568 ft 136 kts 346°
2026-05-04 20:56 33.31644 -7.57478 1425 ft 138 kts 347°
2026-05-04 20:57 33.32570 -7.57782 1272 ft 138 kts 346°
2026-05-04 20:57 33.33484 -7.58108 1119 ft 137 kts 346°
2026-05-04 20:57 33.34402 -7.58420 880 ft 137 kts 346°
2026-05-04 20:57 33.35304 -7.58723 676 ft 133 kts 348°
2026-05-04 20:58 33.36091 -7.58977 652 ft 99 kts 343°
2026-05-04 20:58 33.36583 -7.59144 652 ft 51 kts 342°
2026-05-04 20:58 33.36880 -7.59249 649 ft 42 kts 344°
2026-05-04 20:58 33.37152 -7.59330 649 ft 39 kts 357°
2026-05-04 20:59 33.37397 -7.59272 649 ft 28 kts 17°
2026-05-04 20:59 33.37459 -7.59249 651 ft 1 kts 16°
2026-05-04 20:59 33.37468 -7.59246 650 ft 2 kts 15°
2026-05-04 20:59 33.37471 -7.59245 649 ft 1 kts 14°
2026-05-04 21:00 33.37472 -7.59245 649 ft 0 kts 14°
2026-05-04 21:00 33.37463 -7.59236 648 ft 6 kts 184°
2026-05-04 21:00 33.37406 -7.59262 649 ft 16 kts 179°
2026-05-04 21:00 33.37273 -7.59298 650 ft 20 kts 198°
2026-05-04 21:01 33.37258 -7.59386 650 ft 13 kts 329°
2026-05-04 21:01 33.37422 -7.59448 650 ft 34 kts 345°
2026-05-04 21:01 33.37681 -7.59526 648 ft 25 kts 352°
2026-05-04 21:01 33.37739 -7.59422 647 ft 18 kts 76°
2026-05-04 21:02 33.37771 -7.59270 647 ft 20 kts 75°
2026-05-04 21:02 33.37812 -7.59102 646 ft 20 kts 73°
2026-05-04 21:02 33.37832 -7.59020 646 ft 9 kts 74°
2026-05-04 21:02 33.37853 -7.58942 647 ft 11 kts 71°
2026-05-04 21:03 33.37878 -7.58846 648 ft 13 kts 73°
2026-05-04 21:03 33.37902 -7.58742 647 ft 16 kts 75°
2026-05-04 21:03 33.37907 -7.58719 649 ft 0 kts 77°
2026-05-04 21:03 33.37908 -7.58711 648 ft 6 kts 80°
2026-05-04 21:04 33.37871 -7.58592 647 ft 14 kts 128°
2026-05-04 21:04 33.37816 -7.58521 647 ft 13 kts 139°
2026-05-04 21:04 33.37715 -7.58461 647 ft 19 kts 163°
2026-05-04 21:04 33.37601 -7.58439 648 ft 14 kts 172°
2026-05-04 21:05 33.37507 -7.58411 650 ft 13 kts 159°
2026-05-04 21:05 33.37438 -7.58378 650 ft 6 kts 127°
2026-05-04 21:05 33.37444 -7.58337 651 ft 5 kts 67°
2026-05-04 21:05 33.37451 -7.58317 649 ft 1 kts 64°
2026-05-04 21:06 33.37456 -7.58306 649 ft 2 kts 62°
2026-05-04 21:06 33.37461 -7.58290 649 ft 2 kts 70°
2026-05-04 21:06 33.37463 -7.58281 650 ft 0 kts 72°
2026-05-04 21:14 33.37464 -7.58281 622 ft 0 kts 72°